sat.trackr.live / text

‹ back to catalog

STARLINK-11256 [DTC]

NORAD 60904 · 2024-154B

PAYLOAD ACTIVE UNKNOWN

§ Identity

Operator
Country
US
Launch date
2024-08-31
Launch site
AFETR
Launch vehicle
Mass (kg)
RCS (m²)

Purposes: comms

External: N2YO · Heavens-Above · Gunter

§ Orbital elements

Epoch: 2026-09-21T09:03:17.580384Z

Period
91.74 min
Inclination
53.1595°
Eccentricity
0.0001007
Mean motion
15.69707478 rev/d
Perigee alt
359.1 km
Apogee alt
360.4 km
Semi-major
6,737.9 km
B*
-5.6928e-7
RAAN
246.2815°
Arg perigee
81.8723°
Mean anomaly
278.2409°
Rev number
11,925

§ Raw data

STARLINK-11256 [DTC]1 60904U 24154B   26264.37728681 -.00000657  00000+0 -56928-6 0  99922 60904  53.1595 246.2815 0001007  81.8723 278.2409 15.69707478119258

JSON: /api/v1/satellites/60904 · /tle

For live sub-satellite position, see the globe view (requires WebGL).

§ Visibility from observer

Set your observer location to see the next 7 days of passes ≥ 10°. The values pass through the URL so the page stays shareable.

No JS? Fill the form by hand. The geolocation button needs JavaScript.